Weather History for KVPC - August, 2012

Change the Weather History Date:

Wednesday, August 8, 2012

  Actual Average Record
Temperature  
Mean Temperature 81 °F 79 °F  
Max Temperature 93 °F 90 °F - ()
Min Temperature 69 °F 68 °F - ()
Cooling Degree Days 16 14  
Month to date cooling degree days 112  
Year to date cooling degree days 968  
Since 1 June cooling degree days 819  
Growing Degree Days 31 (Base 50)    
Moisture  
Dew Point 70 °F    
Average Humidity 83    
Maximum Humidity 100    
Minimum Humidity 39    
Precipitation  
Precipitation 0.29 in 0.15 in - ()
Month to date precipitation 1.29  
Year to date precipitation 31.95  
Sea Level Pressure  
Sea Level Pressure 30.00 in    
Wind  
Wind Speed 1 mph (SE)    
Max Wind Speed 13 mph    
Max Gust Speed 26 mph    
Visibility 9 miles    
Events Rain , Thunderstorm    
T = Trace of Precipitation, MM = Missing Value Source: NWS Daily Summary

Daily Weather History Graph

Daily Weather History Graph

Search for Another Location

Airport or City:

Trip Planner

Search our weather history database for the weather conditions in past years. The results will help you decide how hot, cold, wet, or windy it might be!

Date:

Astronomy

Aug. 08, 2012 Rise Set
Actual Time 6:56 AM EDT 8:33 PM EDT
Civil Twilight 6:29 AM EDT 9:00 PM EDT
Nautical Twilight 5:56 AM EDT 9:32 PM EDT
Astronomical Twilight 5:22 AM EDT 10:06 PM EDT
Moon No Moon Rise 1:18 PM EDT (8/8)
Length of Visible Light 14h 31m
Length of Day
13h 37m
Waning Gibbous, 61% of the Moon is Illuminated
Aug 8
Waning Gibbous
Aug 9
Last Quarter
Aug 17
New
Aug 24
First Quarter
Aug 31
Full

Hourly Weather History & Observations

Time (EDT) Temp. Heat Index Dew Point Humidity Pressure Visibility Wind Dir Wind Speed Gust Speed Precip Events Conditions
12:53 AM 71.1 °F - 70.0 °F 96% 30.00 in 10.0 mi Calm Calm - N/A   Clear
1:53 AM 71.1 °F - 70.0 °F 96% 29.99 in 10.0 mi Calm Calm - N/A   Clear
2:53 AM 70.0 °F - 69.1 °F 97% 29.99 in 10.0 mi Calm Calm - N/A   Clear
3:53 AM 70.0 °F - 70.0 °F 100% 29.98 in 10.0 mi Calm Calm - N/A   Mostly Cloudy
4:26 AM 69.8 °F - 69.8 °F 100% 30.01 in 10.0 mi Calm Calm - N/A   Scattered Clouds
4:53 AM 70.0 °F - 70.0 °F 100% 29.97 in 10.0 mi Calm Calm - N/A   Partly Cloudy
5:53 AM 69.1 °F - 69.1 °F 100% 29.97 in 9.0 mi Calm Calm - N/A   Clear
6:22 AM 69.8 °F - 69.8 °F 100% 30.02 in 10.0 mi Calm Calm - N/A   Scattered Clouds
6:31 AM 69.8 °F - 69.8 °F 100% 30.02 in 10.0 mi Calm Calm - N/A   Mostly Cloudy
6:53 AM 69.1 °F - 69.1 °F 100% 29.99 in 4.0 mi Calm Calm - N/A   Overcast
7:18 AM 69.8 °F - 69.8 °F 100% 30.04 in 5.0 mi Calm Calm - N/A   Overcast
7:53 AM 71.1 °F - 71.1 °F 100% 30.01 in 9.0 mi Calm Calm - N/A   Overcast
8:28 AM 73.4 °F - 71.6 °F 94% 30.06 in 10.0 mi Calm Calm - N/A   Mostly Cloudy
8:53 AM 73.9 °F - 71.1 °F 91% 30.03 in 10.0 mi Calm Calm - N/A   Overcast
9:12 AM 75.2 °F - 71.6 °F 89% 30.06 in 10.0 mi Variable 3.5 mph - N/A   Mostly Cloudy
9:30 AM 75.2 °F - 71.6 °F 89% 30.07 in 10.0 mi Calm Calm - N/A   Mostly Cloudy
9:53 AM 75.0 °F - 72.0 °F 90% 30.03 in 10.0 mi Calm Calm - N/A   Overcast
10:53 AM 79.0 °F - 72.0 °F 79% 30.04 in 10.0 mi Calm Calm - N/A   Overcast
11:11 AM 80.6 °F 84.6 °F 71.6 °F 74% 30.07 in 10.0 mi Calm Calm - N/A   Scattered Clouds
11:53 AM 84.9 °F 90.7 °F 72.0 °F 65% 30.03 in 10.0 mi NNE 4.6 mph - N/A   Mostly Cloudy
12:02 PM 84.2 °F 89.6 °F 71.6 °F 66% 30.06 in 10.0 mi Variable 5.8 mph - N/A   Scattered Clouds
12:53 PM 88.0 °F 92.9 °F 70.0 °F 55% 30.01 in 10.0 mi Variable 5.8 mph - N/A   Partly Cloudy
1:53 PM 88.0 °F 92.1 °F 69.1 °F 53% 29.99 in 10.0 mi Calm Calm - N/A   Scattered Clouds
2:53 PM 90.0 °F 93.6 °F 68.0 °F 48% 29.97 in 10.0 mi Variable 3.5 mph - N/A   Partly Cloudy
3:53 PM 93.0 °F 96.4 °F 66.9 °F 42% 29.94 in 10.0 mi North 6.9 mph - N/A   Clear
4:53 PM 93.0 °F 95.0 °F 64.9 °F 39% 29.93 in 10.0 mi Calm Calm - N/A   Scattered Clouds
5:53 PM 91.0 °F 93.8 °F 66.0 °F 44% 29.91 in 10.0 mi Calm Calm - N/A   Partly Cloudy
6:32 PM 89.6 °F 92.2 °F 66.2 °F 46% 29.95 in 10.0 mi South 4.6 mph - N/A Thunderstorm Partly Cloudy
6:53 PM 88.0 °F 92.1 °F 69.1 °F 53% 29.92 in 10.0 mi SSW 4.6 mph - N/A Thunderstorm Thunderstorm
7:09 PM 75.2 °F - 71.6 °F 89% 29.98 in 1.8 mi SSW 12.7 mph 26.5 mph 0.07 in Rain , Thunderstorm Thunderstorms and Rain
7:28 PM 73.4 °F - 71.6 °F 94% 29.99 in 3.0 mi SSE 9.2 mph 21.9 mph 0.22 in Rain , Thunderstorm Light Thunderstorms and Rain
7:41 PM 73.4 °F - 71.6 °F 94% 29.98 in 10.0 mi Calm Calm - 0.29 in Rain Light Rain
7:53 PM 73.9 °F - 72.0 °F 93% 29.95 in 10.0 mi ENE 4.6 mph - 0.29 in   Mostly Cloudy
8:53 PM 73.9 °F - 73.0 °F 97% 29.96 in 8.0 mi Calm Calm - N/A   Partly Cloudy
9:53 PM 73.0 °F - 72.0 °F 96% 29.97 in 9.0 mi ESE 4.6 mph - N/A   Clear
10:53 PM 73.0 °F - 73.0 °F 100% 29.97 in 6.0 mi Calm Calm - N/A   Clear
11:53 PM 72.0 °F - 72.0 °F 100% 29.97 in 6.0 mi Calm Calm - N/A   Clear